Location: Bronnegerveen
(52.9548°N, 6.8388°E)
Time: 02:17:14
(UTC+00:00)

Cosmos 375 - Pass Details

Date: 15 June 2025
Orbit: 530 x 2015 km, 62.8° (Epoch: 07 July)

Event Time Altitude Azimuth Distance (km) Brightness Sun altitude
Rises 00:27:59 0° 311° (NW) 3,300 8.7 -12.8°
Reaches altitude 10° 00:30:40 10° 310° (NW) 2,187 7.7 -12.7°
Maximum altitude 00:35:24 73° 226° (SW) 624 4.4 -12.5°
Drops below altitude 10° 00:39:17 10° 142° (SE) 1,802 6.6 -12.4°
Enters shadow 00:40:17 - 141° (SE) 2,223 7.1 -12.3°
